User: anonymous   Login
Location: Rio Negrinho
(26.2394°S, 49.4999°W)
Time: 12:14:24
(UTC+00:00)
Language:

NOAA 6 - Orbit

View from above orbital plane
View from above orbital plane
View from above satellite
View from above satellite

Ground track
Ground track

The orbit data is extracted from the following two-line orbital elements,

1 11416U 79057A   20226.88862322 +.00000010 +00000-0 +19862-4 0  9993
2 11416 098.6581 225.7817 0011542 083.2247 277.0250 14.33587801145152
Epoch (UTC): 13 August 2020 21:19:37
Eccentricity: 0.0011542
inclination: 98.6581°
perigee height: 771 km
apogee height: 788 km
right ascension of ascending node: 225.7817°
argument of perigee: 83.2247°
revolutions per day: 14.33587801
mean anomaly at epoch: 277.0250°
orbit number at epoch: 14515

The dashed part of the orbit path shows where the satellite is in the earth's shadow,  

DLR